Location: ????????
(55.6376°N, 37.7644°E)
Time: 03:11:56
(UTC+00:00)

Daily predictions for brighter satellites

Satellite Brightness Start Highest point End
(mag) Time Altitude Azimuth Time Altitude Azimuth Time Altitude Azimuth
ATLAS 2AS CENTAUR R/B 4.1 00:12:27 30° ESE 00:12:40 31° ESE 00:18:37 10° ENE
Cosmos 1697 Rocket 4.5 00:19:14 27° E 00:19:14 27° E 00:23:16 10° NE
Cosmos 2263 Rocket 3.8 00:36:29 27° ESE 00:36:29 27° ESE 00:39:02 10° SE
CZ-2C R/B 4.2 00:34:58 10° NNE 00:38:11 29° ENE 00:38:11 29° ENE
USA 229 DEB 4.0 00:46:59 70° NNE 00:47:20 71° NNE 00:55:13 10° ESE
USA 229 4.0 00:47:06 69° NNE 00:47:27 71° NNE 00:55:19 10° ESE
S3M 4.5 00:57:26 10° N 01:03:40 58° ENE 01:09:46 10° SSE
Cosmos 1656 4.4 01:08:11 48° NNE 01:08:11 48° NNE 01:12:11 10° NNE
Envisat 4.4 01:02:56 10° NNE 01:05:29 30° NNE 01:05:29 30° NNE
Cosmos 2219 4.4 01:11:45 32° SSE 01:11:45 32° SSE 01:14:40 10° SSE
ADEOS II 3.9 01:07:19 10° N 01:09:10 21° N 01:09:10 21° N
NOSS 3-4 (A) 4.1 01:14:52 43° N 01:14:59 43° N 01:21:25 10° ENE
NOSS 3-4 (C) 4.1 01:14:58 43° N 01:15:04 43° N 01:21:31 10° ENE
H-2A R/B 2.8 01:15:49 10° NNE 01:20:42 47° E 01:22:08 37° SE
Resurs 1-4 Rocket 4.1 01:16:59 10° N 01:18:30 18° N 01:18:30 18° N
PAYLOAD A 4.4 01:21:08 10° NNE 01:26:34 65° ESE 01:27:47 50° SSE
Cosmos 1844 Rocket 3.7 01:30:19 25° NNW 01:33:05 42° NE 01:38:24 10° ESE
Cosmos 2278 Rocket 4.2 01:32:29 15° NNW 01:34:27 18° N 01:38:17 10° NE
Cosmos 1331 Rocket 4.1 01:37:08 70° SSE 01:37:35 75° ESE 01:42:53 10° NNE
Cosmos 1943 Rocket 4.2 01:37:23 15° NNW 01:39:05 17° N 01:42:43 10° NE
CZ-4 R/B 3.9 01:35:58 10° NNE 01:41:00 81° ESE 01:41:13 78° SE
ATLAS 3B R/B 3.0 01:40:33 55° W 01:41:41 60° SW 01:49:17 10° SSE
USA 281 3.1 01:35:23 10° SSE 01:41:58 84° WSW 01:46:00 26° NNW
Cosmos 1092 Rocket 4.5 01:44:06 43° NW 01:44:06 43° NW 01:48:56 10° N
Cosmos 2369 Rocket 3.9 01:42:58 20° NNW 01:43:01 20° NNW 01:47:08 10° NNE
Cosmos 1980 Rocket 2.9 01:41:31 24° S 01:44:37 51° ESE 01:50:03 10° NE
IRS-1D 3.7 01:41:45 10° NNE 01:46:45 67° ESE 01:49:09 30° S
SL-08 ROCKET BODY 4.4 01:41:40 10° S 01:47:36 76° E 01:53:29 10° NNE
USA 267 3.2 01:43:02 10° E 01:49:35 85° N 01:51:29 51° WNW
CZ-2D R/B 4.0 01:48:25 10° N 01:49:54 16° NNW 01:49:54 16° NNW
NOSS 2-1 (D) 3.8 01:57:10 55° SE 01:57:10 55° SE 02:00:48 10° SE
Meteor 2-5 Rocket 4.1 01:51:05 10° S 01:56:45 64° E 02:02:20 10° NNE
Cosmos 371 Rocket 3.1 01:59:23 78° WNW 01:59:38 81° WSW 02:04:27 10° SSE
Cosmos 1825 4.2 02:02:15 16° NNE 02:02:15 16° NNE 02:03:00 10° NNE
Cosmos 1844 4.3 01:57:50 21° NNW 02:01:28 54° NE 02:07:03 10° SE
Cosmos 1697 Rocket 2.6 02:00:59 58° WSW 02:02:03 74° NW 02:07:46 10° NNE
ATLAS 2AS CENTAUR R/B 2.7 01:59:55 39° SW 02:02:57 88° SE 02:09:56 10° NE
Okean 2 Rocket 4.0 01:59:41 10° N 02:04:05 49° ENE 02:08:24 10° SSE
Cosmos 2315 Rocket 3.9 01:58:56 10° NNW 02:05:21 83° W 02:11:43 10° S
USA 59 Rocket -0.1 02:07:20 67° SSE 02:07:20 67° SSE 02:11:29 10° SE
Cosmos 2227 4.2 02:04:44 29° NNW 02:07:47 82° NE 02:13:29 10° SE
ATLAS CENTAUR R/B 1.4 02:09:29 62° SE 02:09:35 62° SE 02:13:26 10° NE
Lacrosse 4 Rocket 3.5 02:13:10 15° S 02:13:10 15° S 02:14:03 10° S
Cosmos 883 Rocket 4.4 02:04:59 10° NNW 02:11:20 73° W 02:17:36 10° S
Cosmos 1939 Rocket 3.0 02:08:08 10° NNE 02:11:51 64° ESE 02:13:58 24° S
COSMO-SKYMED 1 2.9 02:07:45 10° SSE 02:12:03 67° ENE 02:16:24 10° N
Cosmos 1452 Rocket 3.4 02:11:47 54° WSW 02:12:47 67° WNW 02:18:02 10° NNE
Cosmos 2360 4.4 02:13:02 47° WNW 02:13:46 50° NW 02:19:20 10° NNE
Cosmos 2098 Rocket 4.3 02:09:57 10° N 02:13:46 35° ENE 02:17:00 10° SE
Cosmos 1818 4.1 02:10:41 22° SSW 02:14:08 59° SE 02:19:33 10° NE
Cosmos 2263 Rocket 2.8 02:18:15 36° SW 02:18:15 36° SW 02:22:25 10° S
Cosmos 1302 Rocket 4.1 02:13:09 16° SSW 02:17:22 75° ESE 02:22:34 10° NNE
CZ-2C R/B 2.6 02:12:58 10° N 02:17:26 49° WNW 02:17:26 49° WNW
Cosmos 2242 Rocket 3.5 02:16:33 15° SSW 02:20:13 87° W 02:24:42 10° NNE
Cosmos 1892 3.4 02:22:07 36° N 02:22:07 36° N 02:24:16 10° N
Cosmos 2082 4.0 02:21:08 43° WSW 02:21:25 43° WSW 02:26:43 10° S
Blok-L 4.4 02:20:05 32° NW 02:22:15 64° NNE 02:45:21 10° ESE
Cosmos 2266 Rocket 4.0 02:21:57 10° SSW 02:28:20 67° WNW 02:34:43 10° N
NOSS 2-1 (E) 3.4 02:34:05 50° WSW 02:34:26 52° SW 02:38:59 10° SSE
Cosmos 2151 Rocket 3.4 02:32:52 10° NNW 02:37:19 80° W 02:41:46 10° S
ALOS 4.5 02:35:39 10° NNW 02:35:56 11° NNW 02:35:56 11° NNW
USA 229 DEB 4.2 02:34:27 28° WNW 02:38:17 51° SW 02:45:57 10° SSE
USA 229 4.1 02:34:33 27° WNW 02:38:25 51° SW 02:46:03 10° SSE
TIMED 4.4 02:37:43 23° NNW 02:40:25 89° WSW 02:44:44 10° SSE
SL-16 R/B 3.6 02:38:45 10° S 02:43:57 39° ESE 02:49:11 10° NE
SL-08 RB Rocket 3.8 02:39:26 10° NNE 02:44:02 82° ESE 02:48:39 10° SSW
GENESIS II 3.7 02:43:49 57° W 02:44:22 71° NW 02:47:47 10° NE
Okean 1 Rocket 3.2 02:41:36 10° N 02:46:06 80° ENE 02:50:34 10° SSE
Envisat 4.5 02:42:44 10° N 02:45:38 20° NW 02:45:38 20° NW
Cosmos 1437 Rocket 2.9 02:43:17 10° S 02:46:50 64° E 02:50:27 10° NNE
Cosmos 1655 Rocket 3.9 02:41:05 10° SSW 02:47:27 72° WNW 02:53:49 10° N
S3M 4.5 02:43:14 10° NNW 02:48:49 34° W 02:54:17 10° SSW
IRAS Rocket 4.2 02:43:54 10° NNE 02:49:18 58° WNW 02:54:42 10° SW
Cosmos 304 Rocket 4.2 02:48:32 32° WNW 02:49:46 38° WSW 02:54:08 10° S
ADEOS II 4.0 02:48:30 10° NNW 02:50:01 12° NNW 02:50:01 12° NNW
Cosmos 1484 Rocket 2.4 02:47:50 10° N 02:51:21 65° WNW 02:54:50 10° SSW
Cosmos 1606 3.3 02:50:01 10° N 02:53:20 48° ENE 02:56:37 10° SSE
H-2A R/B 2.5 02:55:25 10° N 02:59:58 35° WNW 03:02:39 20° WSW
SKYMED 2 3.7 02:56:01 10° S 03:00:14 48° W 03:04:28 10° NNW
NOSS 3-4 (A) 4.2 03:02:18 17° NW 03:07:00 51° NNE 03:14:05 10° E
NOSS 3-4 (C) 4.2 03:02:23 17° NW 03:07:06 51° NNE 03:14:11 10° E
BREEZE-M DEB (TANK) 4.1 02:58:35 10° WSW 03:08:20 41° S 03:11:38 10° ESE
Cosmos 2333 Rocket 4.1 03:04:37 10° S 03:09:37 32° ESE 03:14:37 10° NE
ARGOS 3.2 03:04:55 10° N 03:10:15 58° WNW 03:15:33 10° SW
ARIANE 5 R/B 3.1 03:06:04 10° NNE 03:11:04 61° ESE 03:16:07 10° S
Meteor 1-24 Rocket 4.0 03:07:02 10° SW 03:12:09 41° WNW 03:17:11 10° N
Geosat FO 4.3 03:09:11 10° SSE 03:12:31 65° WSW 03:14:36 20° NW
Thor Agena Rocket 3.8 03:07:44 10° N 03:12:45 47° WNW 03:17:41 10° SW
NOSS 2-1 (C) 4.4 03:12:02 23° W 03:13:17 28° SW 03:17:18 10° S
Cosmos 1328 3.6 03:10:37 10° SSW 03:14:16 59° WNW 03:17:57 10° N
Cosmos 2278 4.1 03:09:02 10° SSW 03:14:37 68° ESE 03:20:16 10° NE
USA 290 4.2 03:12:24 10° N 03:15:06 25° NE 03:17:47 10° ESE
Cosmos 1844 Rocket 2.8 03:11:59 12° NW 03:17:11 55° WSW 03:22:39 10° S
Cosmos 2221 Rocket 3.5 03:15:39 10° SSW 03:20:03 76° WNW 03:24:31 10° N
Cosmos 2278 Rocket 3.6 03:15:12 10° NNW 03:20:19 33° NE 03:25:25 10° E
TSX-5 4.2 03:19:24 16° NW 03:22:33 58° WSW 03:27:31 10° SSE
Cosmos 2322 Rocket 3.3 03:18:11 10° S 03:23:34 47° ESE 03:28:58 10° NE
Cosmos 1943 Rocket 3.7 03:19:53 10° NNW 03:24:43 29° NNE 03:29:35 10° E
IRS-1D 4.4 03:21:27 10° N 03:25:34 26° NW 03:29:32 11° WSW
Sich 1 Rocket 4.1 03:22:07 10° NNW 03:26:13 36° W 03:30:19 10° SSW
USA 281 4.2 03:22:18 10° SSW 03:27:22 23° W 03:32:28 10° NW
IRS-1C 4.3 03:22:50 10° NNE 03:28:12 81° ESE 03:33:33 10° SSW
Cosmos 1980 Rocket 2.5 03:23:25 10° WSW 03:28:46 44° NW 03:34:09 10° NNE
Cosmos 2369 Rocket 4.1 03:25:23 10° NNW 03:29:14 18° N 03:33:05 10° NE
Meteor 1-21 Rocket 4.3 03:23:58 10° S 03:29:34 84° ESE 03:35:09 10° NNE
ATLAS 3B R/B 4.2 03:27:51 15° WNW 03:31:05 19° WSW 03:36:07 10° SSW
FengYun 1-2 T 4.3 03:26:57 10° N 03:32:27 56° WNW 03:37:57 10° SW
Cosmos 1975 Rocket 4.4 03:28:14 10° SSE 03:32:29 45° E 03:36:44 10° NNE
Cosmos 2369 3.9 03:27:07 10° WSW 03:32:38 52° NW 03:38:12 10° NNE
Cosmos 1777 Rocket 4.1 03:27:33 10° NNW 03:32:44 56° WSW 03:37:52 10° S
USA 267 3.5 03:26:26 10° SE 03:32:52 61° SSW 03:38:49 13° WNW
IRS-P3 4.5 03:28:11 10° NNE 03:33:32 72° ESE 03:38:50 10° S
Cosmos 1825 4.0 03:34:59 11° NW 03:34:59 11° NW 03:35:15 10° NNW
H-2A R/B 1.5 03:31:40 10° N 03:34:09 65° WNW 03:36:35 10° SSW
Cosmos 1745 Rocket 4.3 03:27:50 10° S 03:34:10 75° E 03:40:29 10° NNE
Meteor 2-5 Rocket 4.5 03:35:36 10° WSW 03:40:34 30° WNW 03:45:30 10° N
Cosmos 1378 Rocket 4.1 03:36:47 10° SW 03:40:53 37° WNW 03:45:00 10° N
Okean 2 Rocket 4.1 03:38:06 10° NNW 03:41:51 26° W 03:45:32 10° SW
Cosmos 1503 Rocket 4.4 03:37:04 10° NW 03:42:08 45° WSW 03:47:08 10° S
NOAA 12 4.2 03:37:21 10° N 03:42:36 58° WNW 03:47:48 10° SW
Cosmos 1898 Rocket 4.3 03:37:38 10° NNW 03:42:41 49° NE 03:47:41 10° SE
Cosmos 1674 Rocket 3.9 03:38:41 10° SW 03:42:47 41° WNW 03:46:56 10° N
Cosmos 1025 Rocket 2.9 03:39:10 10° SSW 03:43:25 73° WNW 03:47:42 10° N
Cosmos 1844 4.2 03:40:16 10° NW 03:45:31 40° WSW 03:50:48 10° S
Cosmos 1939 Rocket 4.1 03:43:12 10° NNW 03:45:47 18° WNW 03:48:22 10° WSW
SeaSat 1 3.6 03:42:14 10° ESE 03:46:47 39° NE 03:51:21 10° NNW
ATLAS CENTAUR R/B 1.9 03:43:56 13° W 03:46:57 34° NNW 03:50:36 10° NE
Cosmos 1697 Rocket 3.8 03:42:44 12° W 03:46:57 26° NNW 03:51:43 10° NNE
Cosmos 1992 Rocket 4.2 03:41:55 10° SW 03:46:59 49° NW 03:52:05 10° NNE
ARIANE 6 FM1 Upper Stage 3.2 03:44:09 10° SW 03:48:21 64° SE 03:52:36 10° ENE
COSMO-SKYMED 1 3.9 03:45:28 10° SW 03:48:41 20° W 03:51:53 10° NW
SL-08 R/B 3.3 03:45:11 10° S 03:49:54 63° WSW 03:54:35 10° NNW
Cosmos 2098 Rocket 3.7 03:49:09 10° NNW 03:52:28 25° W 03:55:21 10° SW
ATLAS 2AS CENTAUR R/B 3.1 03:47:35 10° W 03:54:29 49° NNW 04:01:09 10° ENE
Cosmos 2219 Rocket 3.9 03:49:32 10° S 03:54:41 38° ESE 03:59:49 10° NE
CZ-2C R/B 4.2 03:52:50 10° NNW 03:54:43 12° NW 03:56:38 10° WNW
In-Cosmos 22 Rocket 4.3 03:48:58 10° SSW 03:54:47 82° WNW 04:00:31 10° NNE
Cosmos 1892 4.5 03:55:34 10° WNW 03:55:34 10° WNW 03:56:08 10° NW
USA 59 Rocket 1.8 03:53:36 10° W 03:56:00 16° SW 03:58:50 10° SSW
Timation 2 Rocket 4.2 03:50:04 10° NW 03:56:51 75° WSW 04:03:42 10° SSE
Cosmos 1818 3.9 03:52:34 10° WSW 03:57:53 49° NNW 04:03:14 10° NE
Helios 1A 2.9 03:53:57 10° SSE 03:58:00 77° WSW 04:02:06 10° NNW
Nadezhda 1 Rocket 4.1 03:52:08 10° NNW 03:58:05 51° W 04:03:57 10° SSW
IRIDIUM 103 4.4 03:56:04 10° N 04:01:20 86° E 04:06:34 10° S
Cosmos 1455 Rocket 3.5 04:00:58 10° NNW 04:05:06 42° W 04:09:11 10° SSW
Cosmos 1544 Rocket 3.6 04:02:39 10° N 04:07:01 85° ENE 04:11:19 10° SSE
Cosmos 2237 4.3 04:02:28 10° SW 04:08:06 61° NW 04:13:46 10° NNE
NOSS 3 (A) 2.8 04:08:14 10° SW 04:09:47 89° NW 04:11:26 10° NE
Meteor 2-1 Rocket 4.5 04:06:15 10° NNW 04:11:51 52° W 04:17:18 10° S
Spot 4 Rocket 4.3 04:06:52 10° NNE 04:12:01 76° ESE 04:17:08 10° SSW
Cosmos 2360 Rocket 2.4 04:09:57 10° SSW 04:15:35 82° ESE 04:21:15 10° NE
Cosmos 1869 3.9 04:12:10 10° NNW 04:15:37 33° W 04:19:04 10° SSW
Cosmos 1709 Rocket 4.1 04:09:39 10° SSW 04:15:58 84° W 04:22:16 10° N
